{"data":{"norad_id":66260,"intl_designator":"2025-245AC","name":"STARLINK-35420","alt_names":[],"object_type":"PAYLOAD","status":"ACTIVE","operator":null,"country":"US","launch_date":"2025-10-29","launch_site_code":"AFETR","launch_vehicle":null,"mission":null,"orbit_class":"UNKNOWN","rcs_meters":null,"size_class":null,"mass_kg":null,"dimensions":null,"purposes":["comms"],"wikipedia_slug":null,"has_3d_model":false,"image_url":null,"decayed_at":null,"tle_current":{"epoch":"2026-09-20T22:55:32.825856Z","epoch_age_seconds":57380,"freshness":"FRESH","line1":"1 66260U 25245AC  26263.95524104  .00014435  00000+0  47554-3 0  9991","line2":"2 66260  53.1574  95.4029 0000872 121.2184 238.8904 15.31732195 51177","mean_motion":15.31732195,"eccentricity":8.72e-5,"inclination_deg":53.1574,"raan_deg":95.4029,"arg_perigee_deg":121.2184,"mean_anomaly_deg":238.8904,"bstar":0.00047554,"rev_number":5117,"period_min":94.011211927291,"perigee_km":470.04681158154,"apogee_km":471.24123899235,"semimajor_km":6848.7810252869,"source":"CELESTRAK","updated_at":"2026-09-21T09:00:35.851576Z"}}}